Torna al catalogo

STARLINK-34740

AttivoComunicazioniSSO
NORAD 64941·PAYLOAD·🇺🇸 United States

Lanciato Jul 26, 2025 da Vandenberg Space Force Base

Loading…

Prossimi Passaggi (prossime 24 ore)

TLE

AggiornatoSource: CelesTrak SupGP

Epoca: Sep 14, 2026, 22:34 UTC

1 64941C 25158K   26257.94076389  .00065085  00000+0  20199-2 0  2576
2 64941  97.2850 116.2839 0001704  88.7340 193.3193 15.33413128    10

Traccia STARLINK-34740 in tempo reale con AllMySat

Download on the App Store